Weather History for New York, NY

Change the Weather History Date:

Thursday, August 8, 2013

  Actual Average Record
Temperature  
Mean Temperature 77 °F 77 °F  
Max Temperature 83 °F 85 °F 98 °F (2001)
Min Temperature 71 °F 70 °F 59 °F (1989)
Degree Days  
Heating Degree Days 0 0  
Month to date heating degree days 0 0  
Since 1 June heating degree days 4 16  
Since 1 July heating degree days 0 0  
Cooling Degree Days 12 12  
Month to date cooling degree days 84 100  
Year to date cooling degree days 962 782  
Since 1 June cooling degree days 874 716  
Growing Degree Days 26 (Base 50)    
Moisture  
Dew Point 69 °F    
Average Humidity 80    
Maximum Humidity 90    
Minimum Humidity 69    
Precipitation  
Precipitation 0.20 in 0.14 in 2.54 in (2007)
Month to date precipitation 0.72 1.18  
Year to date precipitation 26.09 27.31  
Snow  
Snow 0.00 in 0.00 in - ()
Month to date snowfall 0.0 0.0  
Since 1 July snowfall 0.0 0.0  
Snow Depth 0.00 in    
Sea Level Pressure  
Sea Level Pressure 30.04 in    
Wind  
Wind Speed 9 mph (South)    
Max Wind Speed 20 mph    
Max Gust Speed 24 mph    
Visibility 10 miles    
Events Rain    
T = Trace of Precipitation, MM = Missing Value Source: NWS Daily Summary

Daily Weather History Graph

Daily Weather History Graph

Search for Another Location

Airport:

Trip Planner

Search our weather history database for the weather conditions in past years. The results will help you decide how hot, cold, wet, or windy it might be!

Date:

Astronomy

Aug. 08, 2013 Rise Set
Actual Time 5:59 AM EDT 8:02 PM EDT
Civil Twilight 5:28 AM EDT 8:32 PM EDT
Nautical Twilight 4:52 AM EDT 9:09 PM EDT
Astronomical Twilight 4:12 AM EDT 9:49 PM EDT
Moon 7:44 AM EDT (8/8) 8:38 PM EDT (8/8)
Length of Visible Light 15h 03m
Length of Day
14h 03m
Waxing Crescent, 3% of the Moon is Illuminated
Aug 8
Waxing Crescent
Aug 14
First Quarter
Aug 20
Full
Aug 28
Last Quarter
Sep 5
New

Hourly Weather History & Observations

Time (EDT) Temp. Heat Index Dew Point Humidity Pressure Visibility Wind Dir Wind Speed Gust Speed Precip Events Conditions
12:51 AM 73.9 °F - 66.9 °F 79% 30.07 in 10.0 mi South 12.7 mph - N/A   Overcast
1:51 AM 73.9 °F - 66.9 °F 79% 30.05 in 10.0 mi South 11.5 mph - N/A   Overcast
2:43 AM 73.4 °F - 68.0 °F 83% 30.05 in 10.0 mi South 9.2 mph - 0.13 in Rain Light Rain
2:51 AM 73.0 °F - 69.1 °F 87% 30.05 in 10.0 mi South 10.4 mph - 0.13 in Rain Light Rain
3:07 AM 73.4 °F - 69.8 °F 88% 30.04 in 10.0 mi South 12.7 mph - 0.01 in Rain Light Rain
3:47 AM 71.6 °F - 66.2 °F 83% 30.04 in 10.0 mi South 9.2 mph - 0.02 in Rain Light Rain
3:51 AM 71.1 °F - 66.0 °F 84% 30.04 in 10.0 mi South 8.1 mph - 0.02 in Rain Light Rain
4:44 AM 71.6 °F - 66.2 °F 83% 30.04 in 10.0 mi South 6.9 mph - 0.00 in   Overcast
4:51 AM 72.0 °F - 68.0 °F 87% 30.04 in 10.0 mi South 8.1 mph - 0.00 in   Overcast
5:31 AM 71.6 °F - 68.0 °F 88% 30.05 in 10.0 mi South 8.1 mph - N/A   Overcast
5:51 AM 72.0 °F - 68.0 °F 87% 30.04 in 10.0 mi South 10.4 mph - N/A   Overcast
6:42 AM 73.4 °F - 69.8 °F 88% 30.05 in 10.0 mi South 8.1 mph - N/A   Overcast
6:51 AM 73.0 °F - 68.0 °F 84% 30.05 in 10.0 mi South 11.5 mph - N/A   Overcast
7:51 AM 73.0 °F - 69.1 °F 87% 30.05 in 10.0 mi South 9.2 mph - N/A   Overcast
8:38 AM 73.4 °F - 69.8 °F 88% 30.06 in 10.0 mi South 8.1 mph - N/A   Overcast
8:51 AM 75.0 °F - 69.1 °F 82% 30.06 in 9.0 mi South 6.9 mph - N/A   Overcast
9:51 AM 75.0 °F - 69.1 °F 82% 30.06 in 10.0 mi SSW 6.9 mph - 0.00 in   Overcast
10:30 AM 75.2 °F - 69.8 °F 83% 30.05 in 10.0 mi SSE 9.2 mph - N/A   Overcast
10:51 AM 79.0 °F - 69.1 °F 72% 30.05 in 10.0 mi Variable 5.8 mph - N/A   Overcast
11:51 AM 80.1 °F 82.9 °F 69.1 °F 69% 30.04 in 10.0 mi Variable 5.8 mph - N/A   Overcast
12:51 PM 78.1 °F - 69.1 °F 74% 30.04 in 10.0 mi SSE 10.4 mph - N/A   Overcast
1:29 PM 80.6 °F 83.9 °F 69.8 °F 70% 30.04 in 10.0 mi South 6.9 mph - N/A   Mostly Cloudy
1:51 PM 81.0 °F 84.4 °F 70.0 °F 69% 30.04 in 10.0 mi SSE 6.9 mph - N/A   Mostly Cloudy
2:51 PM 81.0 °F 85.8 °F 73.0 °F 77% 30.04 in 9.0 mi SSE 11.5 mph - 0.00 in Rain Light Rain
3:51 PM 79.0 °F - 70.0 °F 74% 30.03 in 7.0 mi South 10.4 mph - 0.00 in Rain Light Rain
4:51 PM 78.1 °F - 72.0 °F 81% 30.03 in 10.0 mi South 15.0 mph - 0.03 in   Mostly Cloudy
5:51 PM 75.9 °F - 69.1 °F 79% 30.02 in 10.0 mi South 12.7 mph 18.4 mph N/A   Mostly Cloudy
6:51 PM 75.0 °F - 69.1 °F 82% 30.00 in 10.0 mi South 12.7 mph - 0.01 in Rain Light Rain
7:51 PM 75.0 °F - 70.0 °F 84% 30.01 in 10.0 mi SSW 6.9 mph - 0.01 in   Mostly Cloudy
8:51 PM 75.0 °F - 70.0 °F 84% 30.02 in 10.0 mi Variable 4.6 mph - 0.00 in   Mostly Cloudy
9:51 PM 78.1 °F - 70.0 °F 76% 30.03 in 10.0 mi South 8.1 mph - N/A   Mostly Cloudy
10:51 PM 75.0 °F - 69.1 °F 82% 30.03 in 10.0 mi South 12.7 mph - N/A   Mostly Cloudy
11:51 PM 73.9 °F - 69.1 °F 85% 30.02 in 10.0 mi South 9.2 mph - N/A   Mostly Cloudy